EW8803 Weather Reports


time (UTC)temp
C
wind
direction
speed
KPH
gust
KPH
rain 1hr
cm
rain 24hr
cm
rain mn
cm
humidity
%
barometer
mb
20190422161528 16 316 4.8 12.9 0.00 0.20 0.05 53 1000.4
20190422161036 16 270 3.2 16.1 0.00 0.20 0.05 52 1000.3
20190422160530 16 262 6.4 16.1 0.00 0.20 0.05 51 1000.3
20190422160047 17 277 9.7 17.7 0.00 0.20 0.05 51 1000.3
20190422155533 16 350 6.4 17.7 0.00 0.20 0.05 51 1000.3
20190422155020 17 316 6.4 19.3 0.00 0.20 0.05 52 1000.3
20190422154530 16 294 11.3 19.3 0.00 0.20 0.05 52 1000.3
20190422154028 16 249 9.7 17.7 0.00 0.20 0.05 52 1000.4
20190422153520 16 256 8.0 14.5 0.00 0.20 0.05 52 1000.4
20190422153024 16 299 9.7 16.1 0.00 0.20 0.05 52 1000.5
20190422152530 16 266 9.7 19.3 0.00 0.20 0.05 51 1000.5
20190422152035 16 250 14.5 19.3 0.00 0.20 0.05 51 1000.6
20190422151524 17 278 8.0 17.7 0.00 0.20 0.05 52 1000.7
20190422151029 16 269 9.7 14.5 0.00 0.20 0.05 53 1000.7
20190422150536 16 312 8.0 20.9 0.00 0.20 0.05 52 1000.8
20190422145530 16 264 14.5 19.3 0.00 0.20 0.05 52 1000.9
20190422145029 16 257 8.0 14.5 0.00 0.20 0.05 52 1001.0
20190422144526 16 312 4.8 14.5 0.00 0.20 0.05 53 1001.0
20190422144019 16 273 6.4 17.7 0.00 0.20 0.05 53 1001.1
20190422143528 16 248 6.4 17.7 0.00 0.20 0.05 52 1001.2
20190422143031 16 248 6.4 19.3 0.00 0.20 0.05 53 1001.3
20190422142524 16 284 8.0 19.3 0.00 0.20 0.05 52 1001.3
20190422142029 16 243 11.3 17.7 0.00 0.20 0.05 52 1001.4
20190422141522 16 254 8.0 19.3 0.00 0.20 0.05 51 1001.5
20190422141022 16 281 9.7 19.3 0.00 0.20 0.05 53 1001.6
20190422140535 16 225 9.7 19.3 0.00 0.20 0.05 52 1001.7
20190422140056 16 221 4.8 12.9 0.00 0.20 0.05 54 1001.8
20190422135520 16 238 8.0 17.7 0.00 0.20 0.05 54 1001.8
20190422135027 16 271 11.3 17.7 0.00 0.20 0.05 53 1001.9
20190422134535 16 232 9.7 16.1 0.00 0.20 0.05 52 1002.0
20190422134022 16 292 3.2 8.0 0.00 0.20 0.05 53 1002.0
20190422133527 16 261 4.8 11.3 0.00 0.20 0.05 53 1002.1
20190422133031 15 274 3.2 16.1 0.00 0.20 0.05 55 1002.1
20190422132522 15 278 11.3 19.3 0.00 0.20 0.05 53 1002.2
20190422132024 15 271 12.9 19.3 0.00 0.20 0.05 54 1002.2
20190422131536 15 290 3.2 16.1 0.00 0.20 0.05 56 1002.3
20190422131028 15 314 8.0 16.1 0.00 0.20 0.05 55 1002.4
20190422130519 15 253 4.8 14.5 0.00 0.20 0.05 56 1002.4
20190422130056 15 285 9.7 14.5 0.00 0.20 0.05 55 1002.5
20190422125522 15 277 6.4 11.3 0.00 0.20 0.05 56 1002.5
20190422125030 15 257 6.4 14.5 0.00 0.20 0.05 56 1002.6
20190422124536 15 267 8.0 14.5 0.00 0.20 0.05 56 1002.6
20190422124022 15 232 8.0 12.9 0.00 0.20 0.05 57 1002.6
20190422123020 15 309 8.0 17.7 0.00 0.20 0.05 57 1002.7
20190422122527 15 314 6.4 19.3 0.00 0.20 0.05 58 1002.7
20190422122032 15 249 6.4 19.3 0.00 0.20 0.05 57 1002.8
20190422121524 15 288 6.4 14.5 0.00 0.20 0.05 58 1002.9
20190422121021 15 261 8.0 14.5 0.00 0.20 0.05 58 1003.0
20190422120530 14 260 9.7 17.7 0.00 0.20 0.05 60 1003.1
20190422120054 14 271 12.9 17.7 0.00 0.20 0.05 59 1003.1
20190422115520 14 276 11.3 16.1 0.00 0.20 0.05 60 1003.1
20190422115022 14 238 8.0 16.1 0.00 0.20 0.05 61 1003.3
20190422114532 13 299 8.0 24.1 0.00 0.20 0.05 62 1003.3
20190422114037 13 263 14.5 24.1 0.00 0.20 0.05 61 1003.3
20190422113522 14 271 6.4 16.1 0.00 0.20 0.05 62 1003.3
20190422113025 13 214 11.3 17.7 0.00 0.20 0.05 61 1003.5
20190422112537 14 274 9.7 12.9 0.00 0.20 0.05 62 1003.5
20190422112019 13 271 6.4 16.1 0.00 0.20 0.05 63 1003.5
20190422111525 13 314 8.0 16.1 0.00 0.20 0.05 63 1003.6
20190422111028 13 277 6.4 14.5 0.00 0.20 0.05 65 1003.6
20190422110519 13 242 6.4 19.3 0.00 0.20 0.05 66 1003.7
20190422110057 13 292 9.7 19.3 0.00 0.20 0.05 65 1003.8
20190422105524 13 255 8.0 19.3 0.00 0.20 0.05 66 1003.9
20190422105031 13 271 12.9 19.3 0.00 0.20 0.05 66 1003.9
20190422104523 13 247 8.0 17.7 0.00 0.20 0.05 64 1004.0
20190422104022 13 232 6.4 11.3 0.00 0.20 0.05 64 1003.9
20190422103531 13 323 6.4 11.3 0.00 0.20 0.05 67 1004.0
20190422103031 13 298 3.2 11.3 0.00 0.20 0.05 68 1004.0
20190422102519 13 212 8.0 11.3 0.00 0.20 0.05 67 1004.1
20190422102022 12 273 1.6 9.7 0.00 0.20 0.05 69 1004.1
20190422101537 12 287 3.2 11.3 0.00 0.20 0.05 70 1004.2
20190422101024 12 283 4.8 11.3 0.00 0.20 0.05 73 1004.3
20190422100533 12 304 4.8 12.9 0.00 0.20 0.05 75 1004.4
20190422100057 12 261 8.0 12.9 0.00 0.20 0.05 74 1004.4
20190422095524 12 281 8.0 11.3 0.00 0.20 0.05 74 1004.4
20190422095028 12 358 3.2 11.3 0.00 0.20 0.05 75 1004.3
20190422094518 12 264 6.4 12.9 0.00 0.20 0.05 73 1004.4
20190422094024 12 300 3.2 12.9 0.00 0.20 0.05 74 1004.3
20190422093534 12 256 4.8 12.9 0.00 0.20 0.05 73 1004.4
20190422093036 12 273 4.8 12.9 0.00 0.20 0.05 73 1004.4
20190422092559 12 264 3.2 11.3 0.00 0.20 0.05 75 1004.5
20190422092035 12 252 3.2 11.3 0.00 0.20 0.05 78 1004.4
20190422091532 11 267 6.4 11.3 0.00 0.20 0.05 79 1004.5
20190422091026 11 253 6.4 12.9 0.00 0.20 0.05 78 1004.5
20190422090534 11 293 6.4 12.9 0.00 0.20 0.05 79 1004.6
20190422090055 11 233 8.0 12.9 0.00 0.20 0.05 80 1004.5
20190422085520 11 314 6.4 11.3 0.00 0.20 0.05 81 1004.5
20190422085026 11 254 8.0 14.5 0.00 0.20 0.05 81 1004.5
20190422084537 11 218 11.3 14.5 0.00 0.20 0.05 82 1004.4
20190422084037 11 271 8.0 14.5 0.00 0.20 0.05 81 1004.4
20190422083528 11 271 4.8 14.5 0.00 0.20 0.05 83 1004.5
20190422083031 11 210 4.8 9.7 0.00 0.20 0.05 84 1004.4
20190422082522 11 217 6.4 9.7 0.00 0.20 0.05 84 1004.4
20190422082022 10 244 4.8 8.0 0.00 0.20 0.05 85 1004.5
20190422081530 10 233 1.6 6.4 0.00 0.20 0.05 88 1004.5
20190422081033 10 212 3.2 6.4 0.00 0.20 0.05 87 1004.6
20190422080522 10 269 1.6 6.4 0.00 0.20 0.05 89 1004.6
20190422080047 10 219 4.8 9.7 0.00 0.20 0.05 88 1004.6
20190422075533 10 223 4.8 9.7 0.00 0.20 0.05 88 1004.5
20190422075017 10 242 4.8 6.4 0.00 0.20 0.05 88 1004.4
20190422074524 10 249 4.8 6.4 0.00 0.20 0.05 88 1004.6
20190422074031 10 207 3.2 6.4 0.00 0.20 0.05 88 1004.5
20190422073520 10 173 3.2 8.0 0.00 0.20 0.05 88 1004.6
20190422073019 10 212 4.8 9.7 0.00 0.20 0.05 87 1004.5
20190422072531 10 232 4.8 9.7 0.00 0.20 0.05 86 1004.5
20190422072033 10 155 3.2 4.8 0.00 0.20 0.05 87 1004.5
20190422071525 10 155 0.0 3.2 0.00 0.20 0.05 89 1004.4
20190422071028 10 244 0.0 6.4 0.00 0.20 0.05 88 1004.5
20190422070535 10 150 1.6 6.4 0.00 0.20 0.05 89 1004.4
20190422070100 9 219 4.8 6.4 0.00 0.20 0.05 89 1004.4
20190422065524 9 242 0.0 4.8 0.00 0.20 0.05 90 1004.3
20190422065031 9 240 0.0 0.0 0.00 0.20 0.05 91 1004.3
20190422064519 9 230 0.0 0.0 0.00 0.20 0.05 92 1004.3
20190422064024 8 243 0.0 0.0 0.00 0.20 0.05 91 1004.2
20190422063528 8 264 0.0 0.0 0.00 0.20 0.05 92 1004.2
20190422063034 8 269 0.0 0.0 0.00 0.20 0.05 91 1004.3
20190422062607 8 239 0.0 0.0 0.00 0.20 0.05 91 1004.3
20190422062029 8 225 0.0 0.0 0.00 0.20 0.05 92 1004.3
20190422061534 8 223 0.0 0.0 0.00 0.20 0.05 92 1004.3
20190422061030 8 224 0.0 0.0 0.00 0.20 0.05 91 1004.3
20190422060521 8 218 0.0 0.0 0.00 0.20 0.05 92 1004.3
20190422060057 8 255 0.0 0.0 0.00 0.20 0.05 92 1004.2
20190422055524 8 248 0.0 0.0 0.00 0.20 0.05 92 1004.2
20190422055027 8 228 0.0 0.0 0.00 0.20 0.05 92 1004.2
20190422054533 8 205 0.0 0.0 0.00 0.20 0.05 91 1004.3
20190422054020 8 207 0.0 0.0 0.00 0.20 0.05 91 1004.2
20190422053531 8 278 0.0 0.0 0.00 0.20 0.05 91 1004.1
20190422053018 8 278 0.0 0.0 0.00 0.20 0.05 91 1004.1
20190422052528 8 278 0.0 0.0 0.00 0.20 0.05 91 1004.0
20190422052033 8 278 0.0 0.0 0.00 0.20 0.05 90 1004.0
20190422051526 8 278 0.0 3.2 0.00 0.20 0.05 90 1004.0
20190422051027 8 262 1.6 3.2 0.00 0.20 0.05 91 1004.1
20190422050533 8 278 1.6 3.2 0.00 0.20 0.05 91 1004.1
20190422050058 8 318 1.6 3.2 0.00 0.20 0.05 90 1004.1
20190422045524 8 273 1.6 3.2 0.00 0.20 0.05 91 1004.1
20190422045027 8 275 0.0 0.0 0.00 0.20 0.05 91 1004.2
20190422044520 8 277 0.0 1.6 0.00 0.20 0.05 91 1004.2
20190422044022 8 266 0.0 0.0 0.00 0.20 0.05 91 1004.2
20190422043527 8 266 0.0 0.0 0.00 0.20 0.05 91 1004.3
20190422043031 8 266 0.0 0.0 0.00 0.20 0.05 91 1004.3
20190422042522 8 266 0.0 1.6 0.00 0.20 0.05 91 1004.3
20190422042030 8 266 0.0 3.2 0.00 0.20 0.05 91 1004.4
20190422041535 8 270 1.6 3.2 0.00 0.20 0.05 91 1004.4
20190422041022 8 264 0.0 1.6 0.00 0.20 0.05 92 1004.5
20190422040532 8 252 0.0 1.6 0.00 0.20 0.05 92 1004.5
20190422040049 8 269 0.0 0.0 0.00 0.20 0.05 92 1004.6
20190422035534 8 270 0.0 0.0 0.00 0.20 0.05 92 1004.6
20190422035214 8 270 0.0 1.6 0.00 0.20 0.05 92 1004.7
20190422034727 8 270 0.0 1.6 0.00 0.20 0.05 92 1004.7
20190422034053 8 269 0.0 3.2 0.00 0.20 0.05 92 1004.7
20190422033525 8 285 0.0 1.6 0.00 0.20 0.05 92 1004.8
20190422033028 8 276 0.0 0.0 0.00 0.20 0.05 92 1004.9
20190422032532 8 266 0.0 1.6 0.00 0.20 0.05 92 1005.0
20190422032017 8 276 0.0 3.2 0.00 0.20 0.05 92 1005.0
20190422031527 8 293 0.0 3.2 0.00 0.20 0.05 92 1005.0
20190422031027 8 267 0.0 3.2 0.00 0.20 0.05 92 1005.1
20190422030536 8 267 0.0 1.6 0.00 0.20 0.05 92 1005.2
20190422030059 8 290 1.6 3.2 0.00 0.20 0.05 92 1005.3
20190422025526 8 269 1.6 3.2 0.00 0.20 0.05 92 1005.3
20190422025027 8 276 0.0 1.6 0.00 0.20 0.05 92 1005.4
20190422024537 8 285 0.0 1.6 0.00 0.20 0.05 93 1005.4
20190422024022 8 266 0.0 1.6 0.00 0.20 0.05 93 1005.5
20190422023533 8 254 0.0 1.6 0.00 0.20 0.05 93 1005.6
20190422023033 8 194 0.0 1.6 0.00 0.20 0.05 93 1005.5
20190422022524 8 19 0.0 1.6 0.10 0.20 0.05 92 1005.6
20190422022033 8 255 0.0 1.6 0.10 0.20 0.05 93 1005.7
20190422021521 8 276 0.0 3.2 0.10 0.20 0.05 93 1005.7
20190422021024 8 309 1.6 3.2 0.10 0.20 0.05 92 1005.7
20190422020534 8 267 0.0 3.2 0.10 0.20 0.05 92 1005.8
20190422020058 8 210 0.0 3.2 0.20 0.20 0.05 92 1005.8
20190422015519 8 99 0.0 3.2 0.20 0.20 0.05 92 1005.9
20190422015023 8 25 0.0 4.8 0.20 0.20 0.05 92 1006.1
20190422014531 8 153 0.0 4.8 0.20 0.20 0.05 92 1006.1
20190422014031 8 338 0.0 4.8 0.20 0.20 0.05 92 1006.3
20190422013518 8 65 0.0 1.6 0.20 0.20 0.05 92 1006.3
20190422013023 8 95 0.0 1.6 0.20 0.20 0.05 92 1006.3
20190422012531 8 87 0.0 3.2 0.10 0.10 0.03 92 1006.4
20190422012027 8 73 0.0 3.2 0.10 0.10 0.03 92 1006.5
20190422011540 8 60 0.0 3.2 0.10 0.10 0.03 91 1006.5
20190422011024 8 66 0.0 3.2 0.10 0.10 0.03 91 1006.6
20190422010529 8 101 0.0 3.2 0.00 0.00 0.00 91 1006.6
20190422010047 8 63 1.6 3.2 0.00 0.00 0.00 91 1006.6
20190422005616 8 346 0.0 4.8 0.00 0.00 0.00 91 1006.8
20190422005025 9 331 1.6 4.8 0.00 0.00 0.00 90 1006.8
20190422004531 9 26 0.0 1.6 0.00 0.00 0.00 90 1006.9
20190422004018 9 54 0.0 3.2 0.00 0.00 0.00 90 1006.9
20190422003530 9 281 0.0 3.2 0.00 0.00 0.00 90 1006.9
20190422003019 9 307 0.0 3.2 0.00 0.00 0.00 90 1006.9
20190422002528 9 13 0.0 3.2 0.00 0.00 0.00 90 1007.0
20190422002028 9 104 0.0 3.2 0.00 0.00 0.00 90 1006.9
20190422001517 9 300 0.0 3.2 0.00 0.00 0.00 89 1007.0
20190422001019 9 105 0.0 3.2 0.00 0.00 0.00 90 1007.0
20190422000530 9 353 1.6 3.2 0.00 0.00 0.00 89 1007.0
20190422000056 9 53 0.0 1.6 0.00 0.00 0.00 89 1007.1
20190421235525 9 77 0.0 1.6 0.00 0.00 0.00 89 1007.2
20190421235026 9 77 0.0 3.2 0.00 0.00 0.00 89 1007.1
20190421234518 9 71 1.6 3.2 0.00 0.00 0.00 89 1007.2
20190421234020 9 63 1.6 3.2 0.00 0.00 0.00 89 1007.2
20190421233529 9 89 1.6 3.2 0.00 0.00 0.00 89 1007.3
20190421233034 9 77 0.0 1.6 0.00 0.00 0.00 90 1007.4
20190421232526 9 37 0.0 1.6 0.00 0.00 0.00 90 1007.4
20190421232032 9 82 0.0 1.6 0.00 0.00 0.00 90 1007.5
20190421231518 8 75 0.0 1.6 0.00 0.00 0.00 90 1007.4
20190421231022 8 73 0.0 1.6 0.00 0.00 0.00 90 1007.5
20190421230536 8 104 0.0 1.6 0.00 0.00 0.00 90 1007.5
20190421230046 8 108 0.0 1.6 0.00 0.00 0.00 90 1007.6
20190421225533 8 82 0.0 3.2 0.00 0.00 0.00 89 1007.7
20190421225021 8 68 0.0 3.2 0.00 0.00 0.00 89 1007.7
20190421224532 9 73 0.0 3.2 0.00 0.00 0.00 89 1007.7
20190421224032 9 106 0.0 3.2 0.00 0.00 0.00 88 1007.7
20190421223524 9 75 0.0 3.2 0.00 0.00 0.00 88 1007.7
20190421223030 9 108 0.0 3.2 0.00 0.00 0.00 88 1007.8
20190421222518 9 86 0.0 1.6 0.00 0.00 0.00 88 1007.9
20190421222021 9 68 0.0 3.2 0.00 0.00 0.00 88 1007.9
20190421221534 9 106 1.6 3.2 0.00 0.00 0.00 87 1008.1
20190421221020 9 98 1.6 4.8 0.00 0.00 0.00 87 1008.1
20190421220527 9 120 1.6 4.8 0.00 0.00 0.00 87 1008.1
20190421220108 9 121 3.2 8.0 0.00 0.00 0.00 87 1008.2
20190421215522 9 77 4.8 8.0 0.00 0.00 0.00 87 1008.2
20190421215024 9 96 3.2 6.4 0.00 0.00 0.00 87 1008.3
20190421214537 9 117 4.8 6.4 0.00 0.00 0.00 87 1008.3
20190421214023 9 115 3.2 6.4 0.00 0.00 0.00 87 1008.4
20190421213537 9 90 4.8 8.0 0.00 0.00 0.00 88 1008.5
20190421213036 9 108 4.8 8.0 0.00 0.00 0.00 87 1008.5
20190421212528 9 101 3.2 4.8 0.00 0.00 0.00 87 1008.5
20190421212032 9 114 0.0 8.0 0.00 0.00 0.00 87 1008.5
20190421211521 9 154 3.2 8.0 0.00 0.00 0.00 87 1008.5
20190421211028 9 104 3.2 8.0 0.00 0.00 0.00 86 1008.5
20190421210521 9 70 4.8 8.0 0.00 0.00 0.00 86 1008.5
20190421210040 9 103 4.8 9.7 0.00 0.00 0.00 85 1008.5
20190421205527 9 89 6.4 9.7 0.00 0.00 0.00 85 1008.5
20190421205033 9 106 6.4 9.7 0.00 0.00 0.00 85 1008.5
20190421204525 9 107 3.2 9.7 0.00 0.00 0.00 85 1008.5
20190421204026 9 84 6.4 9.7 0.00 0.00 0.00 85 1008.5
20190421203536 9 108 3.2 8.0 0.00 0.00 0.00 84 1008.5
20190421203022 9 96 4.8 8.0 0.00 0.00 0.00 85 1008.4
20190421202533 10 111 3.2 6.4 0.00 0.00 0.00 84 1008.4
20190421202036 10 63 3.2 6.4 0.00 0.00 0.00 84 1008.3
20190421201527 9 124 4.8 9.7 0.00 0.00 0.00 84 1008.3
20190421201031 10 103 6.4 9.7 0.00 0.00 0.00 84 1008.3
20190421200522 10 101 4.8 9.7 0.00 0.00 0.00 84 1008.3
20190421200100 10 129 4.8 9.7 0.00 0.00 0.00 84 1008.3
20190421195528 10 85 6.4 9.7 0.00 0.00 0.00 84 1008.3
20190421195029 10 89 3.2 8.0 0.00 0.00 0.00 84 1008.3
20190421194537 10 96 6.4 11.3 0.00 0.00 0.00 83 1008.3
20190421194022 10 73 6.4 12.9 0.00 0.00 0.00 83 1008.3
20190421193531 10 95 6.4 12.9 0.00 0.00 0.00 82 1008.3
20190421193020 10 70 6.4 12.9 0.00 0.00 0.00 82 1008.2
20190421192529 10 98 4.8 8.0 0.00 0.00 0.00 81 1008.1
20190421191534 10 110 3.2 8.0 0.00 0.00 0.00 81 1008.1
20190421191027 10 80 3.2 9.7 0.00 0.00 0.00 81 1008.1
20190421190517 10 58 4.8 9.7 0.00 0.00 0.00 81 1008.1
20190421190058 10 94 3.2 8.0 0.00 0.00 0.00 82 1008.1
20190421185526 10 89 6.4 9.7 0.00 0.00 0.00 81 1008.0
20190421185028 10 99 6.4 11.3 0.00 0.00 0.00 81 1008.1
20190421184521 10 94 6.4 11.3 0.00 0.00 0.00 81 1008.0
20190421184025 10 86 8.0 11.3 0.00 0.00 0.00 81 1008.1
20190421183530 10 85 4.8 9.7 0.00 0.00 0.00 81 1008.1
20190421183034 10 96 3.2 9.7 0.00 0.00 0.00 80 1008.1
20190421182526 10 79 8.0 11.3 0.00 0.00 0.00 80 1008.2
20190421182032 10 72 4.8 11.3 0.00 0.00 0.00 80 1008.2
20190421181519 10 111 6.4 11.3 0.00 0.00 0.00 80 1008.2
20190421181023 10 82 6.4 9.7 0.00 0.00 0.00 80 1008.2
20190421180536 10 129 4.8 11.3 0.00 0.00 0.00 80 1008.3
20190421180055 10 90 4.8 12.9 0.00 0.00 0.00 80 1008.2
20190421175523 10 73 8.0 14.5 0.00 0.00 0.00 80 1008.2
20190421175027 10 65 9.7 14.5 0.00 0.00 0.00 80 1008.3
20190421174534 10 67 8.0 12.9 0.00 0.00 0.00 80 1008.2
20190421174017 10 18 8.0 14.5 0.00 0.00 0.00 80 1008.2
20190421173527 10 68 8.0 16.1 0.00 0.00 0.00 80 1008.2
20190421173030 10 69 8.0 16.1 0.00 0.00 0.00 80 1008.2
20190421172520 10 94 8.0 20.9 0.00 0.00 0.00 80 1008.2
20190421172028 11 65 9.7 20.9 0.00 0.00 0.00 79 1008.3
20190421171521 11 41 8.0 12.9 0.00 0.00 0.00 80 1008.2
20190421171024 10 41 9.7 14.5 0.00 0.00 0.00 80 1008.2
20190421170532 11 56 8.0 16.1 0.00 0.00 0.00 80 1008.3
20190421170055 10 61 9.7 16.1 0.00 0.00 0.00 79 1008.3
20190421165521 10 43 6.4 16.1 0.00 0.20 0.00 81 1008.3
20190421165024 10 89 8.0 16.1 0.00 0.20 0.00 81 1008.4
20190421164535 10 124 6.4 16.1 0.00 0.20 0.00 82 1008.3
20190421164024 10 139 6.4 14.5 0.00 0.20 0.00 83 1008.5
20190421163517 10 141 9.7 14.5 0.00 0.20 0.00 83 1008.4
20190421163034 10 91 6.4 12.9 0.00 0.20 0.00 85 1008.4
20190421162523 10 86 9.7 12.9 0.00 0.20 0.00 85 1008.4
20190421162027 10 123 8.0 12.9 0.00 0.20 0.00 85 1008.4
20190421161532 10 77 6.4 14.5 0.00 0.20 0.00 85 1008.5